Home   Weather   48°18'N, 16°21'E   Past weeks
Flag for Austria

Past Weather in 48°18'N, 16°21'E, Austria — Yesterday and Last 2 Weeks

Now
88 °F

Sunny.


Feels Like: 87 °F
Forecast: 90 / 67 °F
Wind: 7 mph from North

Location: Vienna Schwechat-Flughafen Airport

Current Time: Jul 23, 2019 at 7:59:32 pm

Latest Report: Jul 23, 2019 at 7:20 pm


Visibility: 10 mi

Pressure: 30.07 "Hg

Humidity: 35%

Dew Point: 57 °F

Location of 48°18'N, 16°21'ELocation

Past Weather in 48°18'N, 16°21'E — Graph

°F

48°18'N, 16°21'E Temperature Yesterday

Maximum temperature yesterday: 84 °F (at 1:50 pm)
Minimum temperature yesterday: 63 °F (at 3:20 am)
Average temperature yesterday: 75 °F

High & Low Weather Summary for the Past Weeks

 TemperatureHumidityPressure
High90 °F (Jul 20, 2:50 pm)94% (Jul 13, 1:50 am)30.24 "Hg (Jul 13, 1:50 am)
Low52 °F (Jul 11, 4:20 am)27% (Jul 19, 1:50 pm)29.83 "Hg (Jul 13, 2:20 am)
Average69 °F59%29.98 "Hg
* Reported Jul 8 6:20 pm — Jul 23 6:50 pm, 48°18'N, 16°21'E. Weather by CustomWeather, © 2019

Note: Actual official high and low records may vary slightly from our data, if they occured in-between our weather recording intervals... More about our weather records

Advertising

48°18'N, 16°21'E Weather History for the Previous 24 Hours

Scroll right to see more
 ConditionsComfort  
Time TempWeatherWind HumidityBarometerVisibility
6:50 pm
Tue, Jul 23
88 °FSunny.10 mph33%30.07 "Hg10 mi
6:20 pm90 °FPassing clouds.8 mph33%30.07 "HgN/A
5:50 pm90 °FSunny.12 mph31%30.07 "Hg10 mi
5:20 pm90 °FPassing clouds.14 mph31%30.07 "HgN/A
4:50 pm90 °FPassing clouds.13 mph31%30.07 "HgN/A
4:20 pm90 °FSunny.14 mph31%30.07 "Hg10 mi
3:50 pm90 °FPassing clouds.10 mph33%30.09 "HgN/A
3:20 pm88 °FSunny.12 mph35%30.09 "Hg10 mi
2:50 pm88 °FPassing clouds.10 mph35%30.09 "HgN/A
2:20 pm88 °FPassing clouds.13 mph35%30.12 "HgN/A
1:50 pm86 °FPassing clouds.12 mph38%30.12 "HgN/A
1:20 pm86 °FPassing clouds.13 mph35%30.12 "HgN/A
12:50 pm84 °FSunny.15 mph40%30.12 "Hg10 mi
12:20 pm84 °FPassing clouds.12 mph40%30.15 "HgN/A
11:50 am82 °FPassing clouds.15 mph42%30.15 "HgN/A
11:20 am82 °FSunny.15 mph42%30.15 "Hg10 mi
10:20 am81 °FPassing clouds.13 mph42%30.15 "HgN/A
9:50 am79 °FSunny.9 mph45%30.18 "Hg10 mi
9:20 am77 °FSunny.10 mph51%30.15 "Hg10 mi
8:50 am77 °FSunny.10 mph51%30.15 "Hg10 mi
8:20 am75 °FSunny.12 mph54%30.18 "Hg10 mi
7:50 am75 °FSunny.10 mph57%30.15 "Hg10 mi
7:20 am72 °FSunny.8 mph65%30.15 "Hg10 mi
6:50 am70 °FSunny.2 mph69%30.15 "Hg10 mi
6:20 am68 °FSunny.2 mph73%30.15 "Hg10 mi
5:50 am66 °FSunny.2 mph78%30.15 "Hg10 mi
5:20 am68 °FSunny.5 mph69%30.15 "Hg10 mi
4:50 am72 °FClear.6 mph61%30.12 "Hg10 mi
4:20 am75 °FPassing clouds.7 mph54%30.12 "HgN/A
3:50 am73 °FClear.5 mph57%30.15 "Hg10 mi
3:20 am73 °FClear.6 mph53%30.15 "Hg10 mi
2:50 am73 °FClear.6 mph53%30.15 "Hg10 mi
2:20 am73 °FClear.8 mph53%30.15 "Hg10 mi
1:50 am73 °FClear.7 mph53%30.15 "Hg10 mi
1:20 am73 °FClear.7 mph53%30.15 "Hg10 mi
12:50 am75 °FClear.7 mph50%30.15 "Hg10 mi
12:20 am75 °FClear.7 mph47%30.15 "Hg10 mi
11:50 pm
Mon, Jul 22
75 °FClear.7 mph47%30.15 "Hg10 mi
11:20 pm77 °FPassing clouds.7 mph44%30.15 "HgN/A
10:50 pm79 °FClear.8 mph42%30.15 "Hg10 mi
10:20 pm79 °FClear.9 mph42%30.15 "Hg10 mi
9:50 pm81 °FClear.10 mph37%30.15 "Hg10 mi
9:20 pm81 °FClear.12 mph37%30.15 "Hg10 mi
8:50 pm82 °FClear.14 mph35%30.15 "Hg10 mi
8:20 pm84 °FSunny.13 mph33%30.15 "Hg10 mi
7:50 pm81 °FPassing clouds.5 mph51%30.15 "HgN/A
7:20 pm82 °FSunny.5 mph48%30.15 "Hg10 mi
Weather by CustomWeather, © 2019

See weather overview